• In Uzbekistan
  • List of Countries
  • For 7 days
  • Water Temperature
  • Satellite Maps
  • Weather Map
  • Weather Widgets
  • user-avatar
    Login

    Hourly Weather Eldoret

    Today, 23 September, Sunday

    Time Temperature Precipitation Wind Pressure Humidity
    00:00 +15°C° 0.1 mm 1 mps 596 mmHg 80%
    01:00 +15°C° 0.1 mm 1 mps 596 mmHg 81%
    02:00 +14°C° 0 mm 1 mps 595 mmHg 82%
    03:00 +13°C° 0 mm 1 mps 595 mmHg 82%
    04:00 +13°C° 0 mm 1 mps 595 mmHg 83%
    05:00 +12°C° 0 mm 2 mps 595 mmHg 83%
    06:00 +15°C° 0 mm 2 mps 596 mmHg 75%
    07:00 +17°C° 0 mm 2 mps 597 mmHg 67%
    08:00 +20°C° 0 mm 2 mps 599 mmHg 59%
    09:00 +23°C° 0 mm 2 mps 599 mmHg 51%
    10:00 +25°C° 0 mm 2 mps 600 mmHg 44%
    11:00 +27°C° 0 mm 2 mps 600 mmHg 37%
    12:00 +27°C° 0 mm 2 mps 600 mmHg 37%
    13:00 +27°C° 0 mm 2 mps 599 mmHg 37%
    14:00 +27°C° 0 mm 2 mps 599 mmHg 38%
    15:00 +25°C° 0.1 mm 2 mps 598 mmHg 45%
    16:00 +23°C° 0.1 mm 1 mps 597 mmHg 53%
    17:00 +21°C° 0.1 mm 1 mps 596 mmHg 60%
    18:00 +20°C° 0.2 mm 1 mps 596 mmHg 63%
    19:00 +18°C° 0.2 mm 1 mps 596 mmHg 66%
    20:00 +16°C° 0.2 mm 1 mps 596 mmHg 69%
    21:00 +15°C° 0 mm 1 mps 596 mmHg 71%
    22:00 +14°C° 0 mm 1 mps 596 mmHg 72%
    23:00 +14°C° 0 mm 1 mps 596 mmHg 74%

    Tomorrow, 24 September, Monday

    Time Temperature Precipitation Wind Pressure Humidity
    00:00 +13°C° 0 mm 1 mps 596 mmHg 74%
    01:00 +13°C° 0 mm 1 mps 595 mmHg 74%
    02:00 +13°C° 0 mm 1 mps 595 mmHg 74%
    03:00 +12°C° 0 mm 2 mps 595 mmHg 73%
    04:00 +12°C° 0 mm 2 mps 595 mmHg 73%
    05:00 +12°C° 0 mm 2 mps 595 mmHg 73%
    06:00 +15°C° 0 mm 2 mps 596 mmHg 65%
    07:00 +17°C° 0 mm 2 mps 597 mmHg 57%
    08:00 +20°C° 0 mm 3 mps 599 mmHg 49%
    09:00 +23°C° 0 mm 2 mps 599 mmHg 43%
    10:00 +25°C° 0 mm 2 mps 600 mmHg 36%
    11:00 +27°C° 0 mm 2 mps 600 mmHg 30%
    12:00 +28°C° 0 mm 2 mps 600 mmHg 29%
    13:00 +28°C° 0 mm 2 mps 599 mmHg 27%
    14:00 +28°C° 0 mm 3 mps 599 mmHg 26%
    15:00 +26°C° 0 mm 2 mps 598 mmHg 32%
    16:00 +25°C° 0 mm 2 mps 597 mmHg 38%
    17:00 +23°C° 0 mm 2 mps 596 mmHg 44%
    18:00 +20°C° 0 mm 2 mps 597 mmHg 48%
    19:00 +20°C° 0 mm 1 mps 597 mmHg 51%
    20:00 +18°C° 0 mm 1 mps 597 mmHg 54%
    21:00 +18°C° 0 mm 1 mps 597 mmHg 54%
    22:00 +16°C° 0 mm 1 mps 597 mmHg 55%
    23:00 +16°C° 0 mm 1 mps 597 mmHg 56%

    Day after tomorrow, 25 September, Tuesday

    Time Temperature Precipitation Wind Pressure Humidity
    00:00 +15°C° 0 mm 1 mps 596 mmHg 58%
    01:00 +14°C° 0 mm 2 mps 595 mmHg 60%
    02:00 +14°C° 0 mm 2 mps 595 mmHg 62%
    03:00 +13°C° 0 mm 2 mps 595 mmHg 64%
    04:00 +13°C° 0 mm 2 mps 595 mmHg 66%
    05:00 +13°C° 0 mm 2 mps 595 mmHg 68%
    06:00 +15°C° 0 mm 2 mps 596 mmHg 62%
    07:00 +18°C° 0 mm 2 mps 598 mmHg 55%
    08:00 +20°C° 0 mm 3 mps 599 mmHg 48%
    09:00 +23°C° 0 mm 2 mps 600 mmHg 42%
    10:00 +26°C° 0 mm 2 mps 600 mmHg 36%
    11:00 +28°C° 0 mm 2 mps 601 mmHg 30%
    12:00 +28°C° 0 mm 2 mps 600 mmHg 30%
    13:00 +28°C° 0 mm 2 mps 599 mmHg 29%
    14:00 +28°C° 0 mm 2 mps 598 mmHg 28%
    15:00 +26°C° 0.1 mm 2 mps 598 mmHg 37%
    16:00 +23°C° 0.1 mm 2 mps 597 mmHg 46%
    17:00 +21°C° 0.1 mm 1 mps 596 mmHg 55%
    18:00 +19°C° 0.2 mm 2 mps 596 mmHg 59%
    19:00 +18°C° 0.2 mm 2 mps 597 mmHg 63%
    20:00 +17°C° 0.2 mm 2 mps 597 mmHg 67%
    21:00 +16°C° 0.1 mm 1 mps 597 mmHg 69%
    22:00 +16°C° 0.1 mm 1 mps 596 mmHg 70%
    23:00 +15°C° 0.1 mm 1 mps 596 mmHg 72%

    26 September, Wednesday

    Time Temperature Precipitation Wind Pressure Humidity
    00:00 +14°C° 0 mm 1 mps 596 mmHg 73%
    01:00 +13°C° 0 mm 1 mps 595 mmHg 75%
    02:00 +13°C° 0 mm 2 mps 594 mmHg 77%
    03:00 +13°C° 0 mm 2 mps 594 mmHg 77%
    04:00 +12°C° 0 mm 2 mps 594 mmHg 77%
    05:00 +12°C° 0 mm 2 mps 595 mmHg 77%
    06:00 +15°C° 0 mm 2 mps 596 mmHg 69%
    07:00 +18°C° 0 mm 2 mps 598 mmHg 60%
    08:00 +21°C° 0 mm 2 mps 599 mmHg 52%
    09:00 +24°C° 0 mm 2 mps 600 mmHg 46%
    10:00 +26°C° 0 mm 2 mps 600 mmHg 40%
    11:00 +28°C° 0 mm 1 mps 601 mmHg 34%
    12:00 +26°C° 0.4 mm 1 mps 599 mmHg 41%
    13:00 +24°C° 0.4 mm 2 mps 598 mmHg 48%
    14:00 +23°C° 0.4 mm 2 mps 596 mmHg 55%
    15:00 +20°C° 1 mm 2 mps 596 mmHg 63%
    16:00 +18°C° 1 mm 2 mps 595 mmHg 71%
    17:00 +17°C° 1 mm 2 mps 595 mmHg 79%
    18:00 +16°C° 0.3 mm 2 mps 595 mmHg 79%
    19:00 +16°C° 0.3 mm 2 mps 596 mmHg 80%
    20:00 +16°C° 0.3 mm 1 mps 596 mmHg 81%
    21:00 +15°C° 0 mm 1 mps 596 mmHg 81%
    22:00 +15°C° 0 mm 1 mps 596 mmHg 81%
    23:00 +15°C° 0 mm 1 mps 596 mmHg 82%

    27 September, Thursday

    Time Temperature Precipitation Wind Pressure Humidity
    00:00 +14°C° 0 mm 1 mps 595 mmHg 81%
    01:00 +14°C° 0 mm 1 mps 595 mmHg 81%
    02:00 +14°C° 0 mm 2 mps 594 mmHg 80%
    03:00 +14°C° 0 mm 2 mps 595 mmHg 80%
    04:00 +13°C° 0 mm 2 mps 595 mmHg 80%
    05:00 +13°C° 0 mm 2 mps 595 mmHg 80%
    06:00 +15°C° 0 mm 2 mps 596 mmHg 74%
    07:00 +17°C° 0 mm 2 mps 597 mmHg 68%
    08:00 +19°C° 0 mm 2 mps 599 mmHg 62%
    09:00 +21°C° 0.1 mm 2 mps 599 mmHg 57%
    10:00 +23°C° 0.1 mm 2 mps 599 mmHg 53%
    11:00 +25°C° 0.1 mm 1 mps 599 mmHg 48%
    12:00 +24°C° 0.2 mm 1 mps 598 mmHg 51%
    13:00 +23°C° 0.2 mm 1 mps 597 mmHg 55%
    14:00 +22°C° 0.2 mm 1 mps 596 mmHg 59%
    15:00 +21°C° 0.5 mm 1 mps 596 mmHg 64%
    16:00 +20°C° 0.5 mm 1 mps 596 mmHg 69%
    17:00 +19°C° 0.5 mm 1 mps 596 mmHg 73%
    18:00 +18°C° 0.9 mm 1 mps 596 mmHg 78%
    19:00 +16°C° 0.9 mm 1 mps 596 mmHg 82%
    20:00 +15°C° 0.9 mm 1 mps 596 mmHg 87%
    21:00 +15°C° 0.8 mm 1 mps 596 mmHg 87%
    22:00 +15°C° 0.8 mm 1 mps 596 mmHg 88%
    23:00 +15°C° 0.8 mm 1 mps 597 mmHg 89%

    28 September, Friday

    Time Temperature Precipitation Wind Pressure Humidity
    00:00 +15°C° 0.4 mm 1 mps 596 mmHg 89%
    01:00 +14°C° 0.4 mm 1 mps 595 mmHg 90%
    02:00 +14°C° 0.4 mm 1 mps 595 mmHg 90%
    03:00 +14°C° 0 mm 1 mps 595 mmHg 91%
    04:00 +13°C° 0 mm 1 mps 595 mmHg 91%
    05:00 +13°C° 0 mm 1 mps 595 mmHg 91%
    06:00 +15°C° 0 mm 1 mps 596 mmHg 83%
    07:00 +17°C° 0 mm 2 mps 597 mmHg 75%
    08:00 +19°C° 0 mm 2 mps 599 mmHg 67%
    09:00 +21°C° 0 mm 2 mps 599 mmHg 58%
    10:00 +25°C° 0 mm 2 mps 599 mmHg 49%
    11:00 +27°C° 0 mm 2 mps 600 mmHg 40%
    12:00 +27°C° 0 mm 2 mps 599 mmHg 40%
    13:00 +27°C° 0 mm 2 mps 598 mmHg 40%
    14:00 +26°C° 0 mm 3 mps 597 mmHg 40%
    15:00 +25°C° 0.1 mm 2 mps 597 mmHg 47%
    16:00 +23°C° 0.1 mm 2 mps 596 mmHg 54%
    17:00 +22°C° 0.1 mm 1 mps 596 mmHg 60%
    18:00 +20°C° 0.3 mm 1 mps 596 mmHg 65%
    19:00 +19°C° 0.3 mm 1 mps 596 mmHg 70%
    20:00 +16°C° 0.3 mm 1 mps 596 mmHg 75%
    21:00 +16°C° 0.2 mm 1 mps 595 mmHg 76%
    22:00 +15°C° 0.2 mm 1 mps 595 mmHg 77%
    23:00 +14°C° 0.2 mm 1 mps 595 mmHg 78%
    Show more